TimeCDT,TemperatureF,Dew PointF,Humidity,Sea Level PressureIn,VisibilityMPH,Wind Direction,Wind SpeedMPH,Gust SpeedMPH,PrecipitationIn,Events,Conditions,WindDirDegrees,DateUTC
12:58 AM,72.7,72.7,100,29.94,10.0,NE,6.9,-,N/A,,Scattered Clouds,50,2013-08-08 05:58:00
1:58 AM,72.3,72.3,100,29.94,10.0,NE,8.1,-,N/A,,Clear,50,2013-08-08 06:58:00
2:58 AM,71.8,71.4,99,29.93,10.0,ENE,9.2,-,N/A,,Mostly Cloudy,60,2013-08-08 07:58:00
3:58 AM,70.3,70.2,99,29.93,10.0,NE,8.1,-,N/A,,Scattered Clouds,50,2013-08-08 08:58:00
4:58 AM,68.9,68.9,100,29.93,10.0,ENE,9.2,-,N/A,,Mostly Cloudy,60,2013-08-08 09:58:00
5:58 AM,68.0,68.0,100,29.93,10.0,ENE,5.8,-,N/A,,Mostly Cloudy,60,2013-08-08 10:58:00
6:58 AM,67.3,67.3,100,29.96,10.0,NNE,3.5,-,N/A,,Mostly Cloudy,30,2013-08-08 11:58:00
7:58 AM,67.8,67.8,100,29.98,10.0,North,3.5,-,N/A,,Overcast,10,2013-08-08 12:58:00
8:58 AM,68.5,68.5,100,29.99,10.0,NNE,4.6,-,N/A,,Overcast,20,2013-08-08 13:58:00
9:58 AM,70.5,70.2,99,29.96,10.0,NE,8.1,-,N/A,,Overcast,50,2013-08-08 14:58:00
10:58 AM,72.5,70.3,93,29.92,10.0,East,8.1,-,N/A,,Mostly Cloudy,80,2013-08-08 15:58:00
11:58 AM,74.7,70.9,88,29.93,10.0,East,5.8,-,N/A,,Mostly Cloudy,80,2013-08-08 16:58:00
12:58 PM,78.4,69.6,74,29.94,10.0,NE,5.8,-,N/A,,Mostly Cloudy,50,2013-08-08 17:58:00
1:58 PM,77.0,72.1,85,29.95,10.0,North,9.2,-,N/A,,Overcast,10,2013-08-08 18:58:00
2:58 PM,75.6,72.5,90,29.95,10.0,NNE,11.5,-,N/A,,Overcast,20,2013-08-08 19:58:00
3:58 PM,74.3,72.0,92,29.96,10.0,NNE,10.4,-,N/A,,Mostly Cloudy,20,2013-08-08 20:58:00
4:58 PM,74.1,72.5,95,29.96,10.0,NNE,6.9,-,N/A,,Mostly Cloudy,20,2013-08-08 21:58:00
5:58 PM,73.6,73.0,98,29.95,10.0,NNE,8.1,-,N/A,,Mostly Cloudy,20,2013-08-08 22:58:00
6:58 PM,73.2,72.7,98,29.96,10.0,NNE,8.1,-,N/A,,Overcast,20,2013-08-08 23:58:00
7:58 PM,72.3,70.0,92,29.96,10.0,NNE,6.9,-,N/A,,Overcast,30,2013-08-09 00:58:00
8:58 PM,71.2,70.9,99,29.96,10.0,NNE,6.9,-,N/A,,Overcast,30,2013-08-09 01:58:00
9:58 PM,70.2,70.2,100,29.98,10.0,NE,2.3,-,N/A,,Overcast,40,2013-08-09 02:58:00
10:58 PM,70.0,70.0,100,29.99,10.0,North,3.5,-,N/A,,Mostly Cloudy,360,2013-08-09 03:58:00